Regional Weather Roundup
Issued by NWS

Home | Current Version | Previous Version | Graphics & Text | Print | Product List | Glossary On
Versions: 1 2 3 4 5 6 7 8 9 10 11 12 13 14 15 16 17 18 19 20 21 22 23 24 25 26 27 28 29 30 31 32 33 34 35 36 37 38 39 40 41 42 43 44 45 46 47 48 49 50
000
ASUS45 KSLC 061910
RWRUT

UTAH REGIONAL WEATHER ROUNDUP
NATIONAL WEATHER SERVICE SALT LAKE CITY UT
1200 PM MST TUE DEC 06 2016

UTZ001>011-023>025-062000-

NORTHERN UTAH

CITY           SKY/WX    TMP DP  RH WIND       PRES   REMARKS
HILL AFB       NOT AVBL
LOGAN          CLOUDY   N/A N/A N/A N3        29.83F
OGDEN          MOSUNNY   26   5  40 CALM      29.79F
SALT LAKE CITY NOT AVBL
TOOELE VALLEY  MOSUNNY   32  14  47 NW5       29.81F WCI  27
WENDOVER       NOT AVBL

$$

UTZ011>015-024>027-062000-

CENTRAL/NORTHEAST UTAH

CITY           SKY/WX    TMP DP  RH WIND       PRES   REMARKS
PROVO AIRPORT  NOT AVBL
MOAB/CANYONLAN CLOUDY    36   4  26 SE9       29.80F WCI  29
PRICE          SUNNY     28   6  39 S5        29.77F WCI  23
VERNAL         SUNNY     27  -7  22 E3        29.82F

$$

UTZ013>016-019>022-027-062000-

SOUTHERN UTAH

CITY           SKY/WX    TMP DP  RH WIND       PRES   REMARKS
BRYCE CANYON   MOSUNNY   37  13  37 SW16      29.77F WCI  28
CEDAR CITY     SUNNY     45  16  31 S18G26    29.77F
MILFORD        SUNNY     35  10  35 S16       29.75F WCI  25

$$

REGIONAL REPORTS     COLORADO/ARIZONA

CITY           SKY/WX    TMP DP  RH WIND       PRES   REMARKS
CRAIG, CO      MOSUNNY   21  -1  38 E12       29.80F WCI   9
GRAND JUNCTION CLOUDY    30   6  36 E7        29.80F WCI  23
RIFLE, CO      CLOUDY    27   8  44 CALM      29.81F
MONTROSE, CO   CLOUDY    31   8  38 N3        29.80F
CORTEZ, CO     PTSUNNY   44  16  32 S14       29.80F
PAGE, AZ       SUNNY     47  19  33 E5        29.79F
GRAND CANYON   NOT AVBL
KINGMAN, AZ    SUNNY     58  12  16 SW18G29   29.87F
FLAGSTAFF, AZ  NOT AVBL

$$

REGIONAL REPORTS    NEVADA/IDAHO/WYOMING

CITY           SKY/WX    TMP DP  RH WIND       PRES   REMARKS
LAS VEGAS, NV  NOT AVBL
ELY, NY        SUNNY     39   2  21 SW12      29.73F WCI  32
ELKO, NV       NOT AVBL
POCATELLO, ID  CLOUDY    19   8  62 VRB5      29.84F WCI  12
BURLEY, ID     CLOUDY    22  15  75 SE5       29.81F WCI  16
EVANSTON, WY   CLOUDY    12  -2  53 E10       29.71F WCI  -1
ROCK SPRINGS,  NOT AVBL

$$



USA.gov is the U.S. government's official web portal to all federal, state and local government web resources and services.